Regional Weather Roundup
Issued by NWS Jackson, KY

Home | Current Version | Previous Version | Graphics & Text | Print | Product List | Glossary On
Versions: 1 2 3 4 5 6 7 8 9 10 11 12 13 14 15 16 17 18 19 20 21 22 23 24 25 26 27 28 29 30 31 32 33 34 35 36 37 38 39 40 41 42 43 44 45 46 47 48 49 50
000
ASUS43 KJKL 032010
RWRJKL

EAST KENTUCKY HOURLY WEATHER ROUNDUP
NATIONAL WEATHER SERVICE JACKSON KY
400 PM EDT SUN MAY 03 2015

NOTE: "FAIR" INDICATES FEW OR NO CLOUDS BELOW 12,000 FEET WITH
NO SIGNIFICANT WEATHER AND/OR OBSTRUCTIONS TO VISIBILITY.

* THESE REPORTS ARE NOT UNDER NWS QUALITY CONTROL AND MAY NOT
  REPORT WEATHER SUCH AS PRECIPITATION AND FOG.

KYZ079-080-083-085-087-088-110-112-115-119-120-032100
...EASTERN KENTUCKY...

CITY           SKY/WX    TMP DP  RH WIND       PRES   REMARKS
JACKSON        MOSUNNY   78  43  28 VRB3      30.13F
LONDON         MOSUNNY   77  41  27 S8        30.12F
SOMERSET*      MOSUNNY   77  45  31 W7        30.12F
MONTICELLO*    MOSUNNY   80  48  32 CALM      30.13F
MIDDLESBORO*   SUNNY     77  43  29 SE6       30.13F
HARLAN APT*    CLEAR     77  36  22 W3        30.14F
HAZARD APT*    PTCLDY    79  41  25 W3        30.12F
BLACK MTN*       N/A     66  37  34 W2          N/A
PIKEVILLE APT* SUNNY     73  41  31 E6        30.14F
BIG SANDY*     MOCLDY    74  40  29 CALM      30.14F
MOREHEAD APT*  PTCLDY    79  43  27 VRB3      30.13F
$$

KYZ035-036-041-042-044-050-067-078-099-032100
...CENTRAL KENTUCKY...

CITY           SKY/WX    TMP DP  RH WIND       PRES   REMARKS
MT STERLING*   MOSUNNY   75  45  33 NW7       30.13F
FLEMING/MASON* SUNNY     77  46  33 W7        30.12F
DANVILLE*      MOSUNNY   77  45  31 S7        30.12F
RICHMOND*      MOSUNNY   73  45  35 W7        30.12S
LEXINGTON      MOSUNNY   77  47  34 S10       30.11F
FRANKFORT      MOSUNNY   77  45  32 CALM      30.08F
$$

KYZ091>093-OHZ055-061-077-WVZ005-015-034-035-042-032100
...SOUTHERN OHIO/WEST VIRGINIA...

CITY           SKY/WX    TMP DP  RH WIND       PRES   REMARKS
COVINGTON      MOSUNNY   75  51  43 S14       30.09F
COLUMBUS       PTSUNNY   77  45  32 SW12G23   30.08F
DAYTON         MOSUNNY   77  46  33 SW12      30.08F
WILMINGTON     MOSUNNY   76  46  34 SW13      30.09F
HUNTINGTON     MOSUNNY   76  38  25 VRB3      30.11F
CHARLESTON     MOSUNNY   78  37  22 SE9       30.11F
PINEVILLE*     SUNNY     77  37  23 MISG      30.19F
BECKLEY        MOSUNNY   72  31  22 VRB3      30.17F
BLUEFIELD      SUNNY     73  32  22 VRB6      30.18F
$$

VAZ002-007-008-TNZ017-027-036-066-071-032100
...SOUTHWEST VIRGINIA/EAST TENNESSEE...

CITY           SKY/WX    TMP DP  RH WIND       PRES   REMARKS
WISE*          SUNNY     73  34  23 W5        30.18F
JONESVILLE*    CLEAR     75  39  27 W7        30.16F
ABINGDON*      MOSUNNY   75  39  27 NW7       30.16F
BRISTOL        MOSUNNY   78  40  25 VRB5      30.14F
KNOXVILLE      MOSUNNY   77  44  30 W8        30.12F
OAK RIDGE      SUNNY     80  43  26 VRB6      30.14F
CROSSVILLE     PTSUNNY   74  45  35 S9        30.15F
NASHVILLE      PTSUNNY   81  49  32 SW8       30.10F
$$

...KEY TO REMARKS...
VSB - VISIBILITY IN MILES
WCI - WIND CHILL INDEX
HX  - HEAT INDEX

$$



USA.gov is the U.S. government's official web portal to all federal, state and local government web resources and services.